Location: Mesa
(33.4220°N, 111.8220°W)
Time: 23:08:06
(UTC-07:00)

N. Korean satellite - Pass Details

Date: 19 November 2019
Orbit: 455 x 507 km, 97.2° (Epoch: 13 December)

Event Time Altitude Azimuth Distance (km) Brightness Sun altitude
Rises 05:28:36 0° 29° (NNE) 2,600 10.5 -19.5°
Reaches altitude 10° 05:31:10 10° 48° (NE) 1,704 9.8 -19.0°
Maximum altitude 05:33:51 19° 95° (E) 1,224 9.6 -18.4°
Drops below altitude 10° 05:36:29 10° 142° (SE) 1,677 10.0 -17.9°
Sets 05:38:58 0° 161° (SSE) 2,542 10.7 -17.4°
